NOAA 16 DEB, 41144

Orbit data source: Space-Track

NOAA 16 DEB, 41144 is space debris in SSO originally from a launch on Thu, 21 Sep 2000 UTC launched from the Air Force Western Test Range (AFWTR). Debris objects in space refer to the collection of defunct objects orbiting the Earth. Examples of debris include non-operational satellites, rocket bodies, and fragments generated from explosions, collisions, or faulty payload assembly.

Loading next visibility...
Identifier
41144, 2000-055CB
Orbit
SSO
Country
Flag of USUS
Related business
Manufacturer
Unknown
Mission
Spacecraft
Bus & Motor
Unknown
Mass
Unknown
Launch date (UTC)
2000-09-21 (26 years ago)
Launch vehicle
Unknown
Launch site
Air Force Western Test Range (AFWTR)
Object type
Payload
Rocket body
Debris
Shape & HBR
Unknown shape, 0.1 m
Radar Cross Section
Medium (>0.1 m² and <1 m²)

Expand to show TLE details & history
Last TLE update: 2 days ago

TLE from 2 days ago
0 NOAA 16 DEB
1 41144U 00055CB  26170.58051562  .00002611  00000-0  10136-2 0  9995
2 41144  98.6019 219.8785 0029696 124.3396 236.0603 14.30508151546013
Epoch: 2026-06-19T13:55Z
TLE epoch observation values (Epoch: 2026-06-19T13:55:56.549Z)
Latitude
-0°
Longitude
103.08543°
Altitude
804.896 km
Speed
7.445 km/s
True Right ascension
14h 39m 30s
True Declination
0° 00' 00"
Sunlit
Object was in full shadow at epoch
Visualization orbit readout
Latitude
Unknown
Longitude
Unknown
Altitude
Unknown
Speed
Unknown
Apparent Right ascension
Unknown
Apparent Declination
Unknown
Sunlit
N/A
Visualization observer readout
Local Sidereal Time
00:28:18
Azimuth
Unknown
Elevation
Unknown
Doppler factor
Unknown
Orbital elements
Apogee altitude
808.45 km
Perigee altitude
765.894 km
Semi-major axis
7,165.309 km
Eccentricity
0.00297
Inclination
98.6019°
RAAN
219.8785°
Arg. of periapsis
124.3396°
True anomaly
235.77857°
Mean anomaly
236.0603°
Eccentric anomaly
235.91938°
Mean motion
3.57842 °/min
Orbital period
100.6 mins
BSTAR
0.0010136
Loading maneuver chart data...
Computing Atmospheric mass density...
Loading historical data...
Loading historical data...
Loading historical data...
Loading historical data...
Loading historical data...
Loading historical data...
Loading historical data...

Documentation

Showing up to 5 results
|